Amritsar, India

6:11 PM IST on May 30, 2017 (GMT +0530)
Amritsar

Weather History for VIAR - May, 2013

Change the Weather History Date:

Sunday, May 12, 2013

  Actual Average Record
Temperature  
Mean Temperature 78 °F -  
Max Temperature 88 °F 100 °F 113 °F (2002)
Min Temperature 69 °F 75 °F 66 °F (2005)
Cooling Degree Days 14    
Growing Degree Days 28 (Base 50)    
Moisture  
Dew Point 64 °F    
Average Humidity 64    
Maximum Humidity 100    
Minimum Humidity 33    
Precipitation  
Precipitation 0.00 in - - ()
Sea Level Pressure  
Sea Level Pressure 29.69 in    
Wind  
Wind Speed 4 mph ()    
Max Wind Speed 20 mph    
Max Gust Speed -    
Visibility 2.4 miles    
Events Rain    
Averages and records for this station are not official NWS values.
T = Trace of Precipitation, MM = Missing Value Source: Averaged Metar Reports

Daily Weather History Graph

Daily Weather History Graph

Search for Another Location

Airport or City:

Trip Planner

Search our weather history database for the weather conditions in past years. The results will help you decide how hot, cold, wet, or windy it might be!

Date:

Astronomy

May. 12, 2013 Rise Set
Actual Time 5:36 AM IST 7:18 PM IST
Civil Twilight 5:09 AM IST 7:44 PM IST
Nautical Twilight 4:37 AM IST 8:16 PM IST
Astronomical Twilight 4:04 AM IST 8:50 PM IST
Moon 7:11 AM IST (5/12) 9:22 PM IST (5/12)
Length of Visible Light 14h 34m
Length of Day
13h 41m
Waxing Crescent, 5% of the Moon is Illuminated
May 12
Waxing Crescent
May 18
First Quarter
May 25
Full
Jun 1
Last Quarter
Jun 8
New

Hourly Weather History & Observations

Time (IST) Temp. Heat Index Dew Point Humidity Pressure Visibility Wind Dir Wind Speed Gust Speed Precip Events Conditions
12:30 AM 73.4 °F - 69.8 °F 88% 29.62 in 2.2 mi Calm Calm - N/A   Mostly Cloudy
1:30 AM 71.6 °F - 68.0 °F 88% 29.62 in 2.2 mi Calm Calm - N/A   Scattered Clouds
2:30 AM 70 °F - 70 °F 100% 29.59 in 1 mi Calm Calm - -   Mist
2:30 AM 69.8 °F - 69.8 °F 100% 29.62 in 2.2 mi Calm Calm - N/A   Scattered Clouds
4:00 AM 71.6 °F - 69.8 °F 94% 29.62 in 2.2 mi Calm Calm - N/A   Scattered Clouds
5:00 AM 71.6 °F - 64.4 °F 78% 29.62 in 2.2 mi Variable 2.3 mph - N/A   Scattered Clouds
5:30 AM 71 °F - 65 °F 76% 29.60 in 1 mi Calm Calm - -   Mist
5:30 AM 71.6 °F - 64.4 °F 78% 29.62 in 2.2 mi Variable 3.5 mph - N/A   Scattered Clouds
6:00 AM 71.6 °F - 62.6 °F 73% 29.62 in 2.2 mi Calm Calm - N/A   Scattered Clouds
7:00 AM 71.6 °F - 62.6 °F 73% 29.65 in 2.5 mi Variable 2.3 mph - N/A   Scattered Clouds
8:00 AM 77.0 °F - 64.4 °F 65% 29.68 in 2.5 mi East 5.8 mph - N/A   Mostly Cloudy
8:30 AM 79 °F - 63 °F 49% 29.66 in 2 mi East 9.2 mph - -   Haze
9:00 AM 82.4 °F 83.9 °F 64.4 °F 54% 29.71 in 2.5 mi East 6.9 mph - N/A   Haze
10:30 AM 86.0 °F 86.6 °F 62.6 °F 45% 29.74 in 3.1 mi ESE 9.2 mph - N/A   Haze
11:30 AM 88 °F - 63 °F 33% 29.70 in 2 mi ESE 6.9 mph - -   Haze
1:00 PM 86.0 °F 86.6 °F 62.6 °F 45% 29.74 in 3.1 mi East 15.0 mph - N/A   Haze
1:30 PM 84.2 °F 85.0 °F 62.6 °F 48% 29.74 in 3.1 mi East 13.8 mph - N/A   Haze
2:00 PM 84.2 °F 85.0 °F 62.6 °F 48% 29.71 in 3.1 mi East 18.4 mph - N/A   Haze
2:30 PM 85 °F - 62 °F 35% 29.68 in 2 mi ESE 19.6 mph - -   Widespread Dust
2:30 PM 86.0 °F 86.6 °F 62.6 °F 45% 29.71 in 3.1 mi East 19.6 mph - N/A   Mostly Cloudy
3:00 PM 82.4 °F 83.4 °F 62.6 °F 51% 29.74 in 3.1 mi East 15.0 mph - N/A   Scattered Clouds
3:30 PM 82.4 °F 82.9 °F 60.8 °F 48% 29.74 in 3.1 mi East 10.4 mph - N/A   Scattered Clouds
4:00 PM 77.0 °F - 66.2 °F 69% 29.71 in - North - - N/A Rain Light Rain
4:30 PM 78.8 °F - 66.2 °F 65% 29.71 in 3.1 mi East 9.2 mph - N/A   Haze
5:00 PM 80.6 °F 82.7 °F 66.2 °F 61% 29.71 in 3.1 mi ENE 8.1 mph - N/A   Haze
5:30 PM 80 °F - 65 °F 50% 29.67 in 2 mi ENE 9.2 mph - -   Haze
6:30 PM 80.6 °F 82.3 °F 64.4 °F 58% 29.71 in 3.1 mi East 9.2 mph - N/A   Haze
7:00 PM 78.8 °F - 64.4 °F 61% 29.71 in 3.1 mi East 9.2 mph - N/A   Haze
8:00 PM 75.2 °F - 64.4 °F 69% 29.71 in 2.5 mi ENE 5.8 mph - N/A   Haze
9:30 PM 75.2 °F - 62.6 °F 65% 29.74 in 2.2 mi Calm Calm - N/A   Haze
10:30 PM 71.6 °F - 62.6 °F 73% 29.74 in 1.7 mi Variable 1.2 mph - N/A   Scattered Clouds
11:00 PM 73.4 °F - 62.6 °F 69% 29.74 in 1.7 mi Calm Calm - N/A   Scattered Clouds
11:30 PM 71.6 °F - 62.6 °F 73% 29.74 in 1.7 mi Calm Calm - N/A   Scattered Clouds